Mountain Home, AR

7:03 AM CST on December 09, 2019 (GMT -0600)
Baxter County Regional

Weather History for KBPK - November, 2019

Change the Weather History Date:

Friday, November 15, 2019

  Actual Average (WUND) Record (WUND)
Temperature  
Mean Temperature 40 °F -  
Max Temperature 51 °F - - (-1)
Min Temperature 28 °F - - (-1)
Degree Days  
Heating Degree Days 26    
Moisture  
Dew Point 27 °F    
Average Humidity 77    
Maximum Humidity 100    
Minimum Humidity 32    
Precipitation  
Precipitation 0.00 in - - ()
Sea Level Pressure  
Sea Level Pressure 30.38 in    
Wind  
Wind Speed 1 mph (NNW)    
Max Wind Speed 6 mph    
Max Gust Speed -    
Visibility 6 miles    
Events Fog    
Averages and records for this station are not official NWS values.
T = Trace of Precipitation, MM = Missing Value Source: NWS Daily Summary

Daily Weather History Graph

Daily Weather History Graph

Search for Another Location

Airport or City:

Astronomy

Nov. 15, 2019 Rise Set
Actual Time 6:46 AM CST 5:01 PM CST
Civil Twilight 6:19 AM CST 5:29 PM CST
Nautical Twilight 5:48 AM CST 6:00 PM CST
Astronomical Twilight 5:17 AM CST 6:30 PM CST
Moon 7:40 PM CST (11/15) 9:41 AM CST (11/15)
Length of Visible Light 11h 09m
Length of Day
10h 14m
Waning Gibbous, 90% of the Moon is Illuminated
Nov 15
Waning Gibbous
Nov 19
Last Quarter
Nov 26
New
Dec 4
First Quarter
Dec 11
Full

Hourly Weather History & Observations

Time (CST) Temp. Windchill Dew Point Humidity Pressure Visibility Wind Dir Wind Speed Gust Speed Precip Events Conditions
1:53 AM 32.0 °F - 24.1 °F 73% 30.38 in 10.0 mi Calm Calm - N/A   Clear
2:53 AM 30.0 °F - 24.1 °F 79% 30.38 in 10.0 mi Calm Calm - N/A   Clear
5:04 AM 28.9 °F 25.2 °F 28.0 °F 96% 30.39 in 1.8 mi NNW 3.5 mph - N/A   Mostly Cloudy
5:16 AM 30.0 °F - 30.0 °F 100% 30.39 in 0.5 mi Calm Calm - N/A Fog Light Freezing Fog
5:27 AM 28.0 °F - 28.0 °F 100% 30.39 in 1.0 mi Calm Calm - N/A   Mist
5:53 AM 28.0 °F - 27.0 °F 96% 30.41 in 10.0 mi Calm Calm - N/A   Clear
6:01 AM 28.0 °F - 27.0 °F 96% 30.39 in 9.0 mi Calm Calm - N/A   Scattered Clouds
6:05 AM 28.0 °F - 28.0 °F 100% 30.39 in 1.8 mi Calm Calm - N/A   Mostly Cloudy
6:08 AM 28.9 °F 25.2 °F 28.9 °F 100% 30.40 in 0.5 mi NNW 3.5 mph - N/A Fog Light Freezing Fog
6:17 AM 28.9 °F 25.2 °F 28.9 °F 100% 30.40 in 0.2 mi NNW 3.5 mph - N/A Fog Light Freezing Fog
7:53 AM 30.9 °F 27.5 °F 30.9 °F 100% 30.43 in 0.2 mi NNW 3.5 mph - N/A Fog Light Freezing Fog
8:50 AM 32.0 °F - 32.0 °F 100% 30.42 in 0.8 mi Calm Calm - N/A   Mist
8:51 AM 32.0 °F - 32.0 °F 100% 30.44 in 0.8 mi Calm Calm - N/A   Mist
8:55 AM 32.0 °F 28.7 °F 32.0 °F 100% 30.42 in 2.0 mi Variable 3.5 mph - N/A   Mostly Cloudy
9:01 AM 32.0 °F - 32.0 °F 100% 30.42 in 8.0 mi Calm Calm - N/A   Scattered Clouds
9:53 AM 35.1 °F 32.2 °F 33.1 °F 92% 30.43 in 10.0 mi Variable 3.5 mph - N/A   Clear
11:53 AM 46.9 °F - 28.9 °F 50% 30.40 in 10.0 mi NW 5.8 mph - N/A   Clear
12:53 PM 48.9 °F - 27.0 °F 43% 30.37 in 10.0 mi Variable 3.5 mph - N/A   Clear
2:53 PM 51.1 °F - 23.0 °F 33% 30.32 in 10.0 mi Variable 4.6 mph - N/A   Clear
3:53 PM 51.1 °F - 21.9 °F 32% 30.32 in 10.0 mi Calm Calm - N/A   Clear
4:53 PM 46.0 °F - 23.0 °F 40% 30.32 in 10.0 mi Calm Calm - N/A   Clear
5:53 PM 41.0 °F - 23.0 °F 49% 30.33 in 10.0 mi Calm Calm - N/A   Clear
7:53 PM 41.0 °F - 21.9 °F 47% 30.32 in 10.0 mi Calm Calm - 0.00 in   Clear
8:53 PM 39.0 °F - 23.0 °F 53% 30.32 in 10.0 mi Calm Calm - N/A   Clear
9:53 PM 37.0 °F - 24.1 °F 59% 30.33 in 10.0 mi Calm Calm - N/A   Clear
10:53 PM 35.1 °F - 26.1 °F 70% 30.32 in 10.0 mi Calm Calm - N/A   Clear
11:53 PM 34.0 °F - 23.0 °F 64% 30.32 in 10.0 mi Calm Calm - N/A   Clear